Hourly Data Report for September 16, 2017

All times are specified in Local Standard Time (LST). Add 1 hour to adjust for Daylight Saving Time where and when it is observed.

KITCHENER/WATERLOO
ONTARIO

43°27'39.000" N
80°22'43.000" W
321.60 m
6144239
71368
YKF

Download Data

Hourly Data (September 2017)
Hourly Data Report for September 16, 2017
Temp Definition
°C
Dew Point Temp Definition
°C
Rel Hum Definition
%
Wind Dir Definition
10's deg

Wind Spd Definition
km/h
Visibility Definition
km
Stn Press Definition
kPa
Hmdx Definition


Wind Chill Definition


Weather Definition


TIME
00:00 Legend Double Dagger 13.3 13.0 98   0 9.7 98.36     Fog
01:00 Legend Double Dagger 11.8 11.7 99   0 0.4 98.36     Fog
02:00 Legend Double Dagger 12.6 12.5 99 19 4 1.0 98.36     Fog
03:00 Legend Double Dagger 10.9 10.8 99   0 0.4 98.38     Fog
04:00 Legend Double Dagger 11.8 11.7 99 33 4 0.6 98.38     Fog
05:00 Legend Double Dagger 10.9 10.8 99   0 2.8 98.42     Fog
06:00 Legend Double Dagger 10.2 10.2 100 35 4 1.2 98.45     Fog
07:00 Legend Double Dagger 10.9 10.9 100   0 4.8 98.47     Fog
08:00 Legend Double Dagger 14.5 14.4 99   0 14.5 98.50     LegendNANA
09:00 Legend Double Dagger 17.8 17.2 96   0 16.1 98.54     LegendNANA
10:00 Legend Double Dagger 21.9 16.8 72 LegendMM 5 16.1 98.53 27   LegendNANA
11:00 Legend Double Dagger 24.0 16.6 63 20 9 16.1 98.50 29   LegendNANA
12:00 Legend Double Dagger 24.8 16.2 58 24 9 16.1 98.48 30   LegendNANA
13:00 Legend Double Dagger 25.0 16.0 57 23 8 16.1 98.45 30   LegendNANA
14:00 Legend Double Dagger 25.9 16.0 54 LegendMM 9 16.1 98.42 31   LegendNANA
15:00 Legend Double Dagger 25.2 16.2 57 20 13 16.1 98.38 30   LegendNANA
16:00 Legend Double Dagger 25.5 15.8 54   0 16.1 98.36 30   LegendNANA
17:00 Legend Double Dagger 24.6 16.1 59 19 8 16.1 98.32 29   LegendNANA
18:00 Legend Double Dagger 21.8 17.2 75 15 5 16.1 98.29 27   LegendNANA
19:00 Legend Double Dagger 17.2 16.0 93   0 16.1 98.31     LegendNANA
20:00 Legend Double Dagger 16.2 15.7 97 6 4 14.5 98.34     LegendNANA
21:00 Legend Double Dagger 15.0 14.7 98 9 4 14.5 98.33     LegendNANA
22:00 Legend Double Dagger 14.0 13.7 98   0 1.2 98.36     Rain,Fog
23:00 Legend Double Dagger 14.2 14.1 99 5 4 1.0 98.35     Rain,Fog

Notes on Data Quality.

Legend

  • E = Estimated
  • M = Missing
  • NA = Not Available
  • ‡ = Partner data that is not subject to review by the National Climate Archives
Date modified: